#timestamp,LO_Frequency,Hit,StdDev 
1458324015.0,286046999.1,N
1458324015.9,286046999.1,N
1458324035.7,286046998.8,N
1458324055.6,286046997.0,N
1458324075.4,286046997.7,N
1458324095.2,286046997.2,N
1458324115.1,286046997.2,N
1458324116.0,286046997.2,N
1458324135.8,286046998.0,N
1458324155.6,286046996.0,N
1458324175.5,286046995.0,N
1458324195.3,286047000.4,N
1458324215.1,286047001.3,N
1458324235.9,286047001.6,N
1458324255.7,286047001.1,N
1458324275.5,286046999.0,N
1458324295.4,286046998.3,N
1458324315.2,286046999.0,N
1458324335.0,286046998.2,N
1458324335.9,286046998.2,N
1458324355.7,286046999.9,N
1458324375.6,286046999.4,N
1458324395.4,286046995.4,N
1458324415.2,286046995.3,N
1458324435.1,286046998.3,N
1458324436.0,286046998.3,N
1458324455.8,286046999.6,N
1458324475.6,286046997.2,N
1458324495.5,286046994.9,Y
1458324515.3,286046999.1,P
1458324535.1,286046997.0,P
1458324555.9,286046997.5,N
1458324575.7,286047002.7,Y
1458324595.5,286046999.3,P
1458324615.4,286046999.7,N
1458324635.2,286047000.5,N
1458324655.0,286047001.8,N
1458324655.9,286047001.8,N
1458324675.8,286047001.9,N
1458324695.6,286047003.7,N
1458324715.4,286047002.9,N
1458324735.3,286047004.7,N
1458324755.1,286047004.4,N
1458324756.0,286047004.4,N
1458324775.8,286047000.9,N
1458324795.7,286047001.2,N
1458324815.5,286047000.3,N
1458324835.3,286047000.2,N
1458324855.1,286047002.4,N
1458324875.9,286047000.9,N
1458324895.7,286047002.5,N
1458324915.5,286047003.6,N
1458324935.4,286047003.5,N
1458324955.2,286047004.8,N
1458324975.0,286047006.5,Y
1458324975.9,286047006.5,P
1458324995.8,286047006.3,N
1458325015.6,286047004.9,N
1458325035.4,286047008.3,Y
1458325055.3,286047003.0,P
1458325075.1,286047004.3,P
1458325095.8,286047001.0,N
1458325115.7,286047002.1,N
1458325135.5,286047004.3,N
1458325155.3,286047003.6,N
1458325175.2,286047004.4,Y
1458325195.9,286047002.1,P
1458325215.7,286047002.5,P
1458325235.6,286046998.7,N
1458325255.4,286047000.6,N
1458325275.2,286047002.0,N
1458325295.1,286047005.7,Y
1458325296.0,286047005.7,P
1458325315.8,286047003.9,N
1458325335.6,286047000.6,N
1458325355.5,286046998.1,N
1458325375.3,286046997.0,N
1458325395.1,286046997.7,N
1458325415.9,286046997.6,N
1458325435.7,286046999.3,N
1458325455.5,286046994.9,N
1458325475.3,286046995.6,N
1458325495.2,286046994.3,N
1458325515.0,286046994.1,N
1458325515.9,286046994.1,N
1458325535.7,286046995.2,N
1458325555.6,286046999.1,N
1458325575.4,286046995.1,N
1458325595.2,286046994.5,N
1458325615.1,286046996.0,N
1458325616.0,286046996.0,N
1458325635.8,286046996.1,N
1458325655.6,286046996.4,N
1458325675.5,286046994.3,N
1458325695.3,286046993.2,N
1458325715.1,286046992.6,N
1458325735.9,286046994.0,N
1458325755.7,286046993.3,N
1458325775.5,286046992.2,N
1458325795.4,286046994.7,N
1458325815.2,286046990.3,Y
1458325835.0,286046992.4,P
1458325835.9,286046992.4,P
1458325855.8,286046995.9,N
1458325875.6,286046997.7,N
1458325895.4,286046997.7,N
1458325915.2,286046995.4,N
1458325935.1,286046995.9,N
1458325936.0,286046995.9,N
1458325955.8,286046995.7,N
1458325975.6,286046995.8,N
1458325995.5,286046995.2,N
1458326015.3,286046996.8,N
1458326035.1,286046995.8,N
1458326055.9,286046993.9,Y
1458326075.7,286046995.1,P
1458326095.5,286046991.9,P
1458326115.4,286046992.5,P
1458326135.2,286046993.1,Y
1458326155.0,286047002.1,P
1458326155.9,286047002.1,N
1458326175.8,286046998.7,N
1458326195.6,286047000.7,N
1458326215.4,286047001.1,N
1458326235.3,286047002.1,N
1458326255.1,286047003.1,N
1458326275.8,286047002.3,N
1458326295.7,286047000.3,N
1458326315.5,286046998.7,N
1458326335.3,286046998.3,N
1458326355.2,286046998.8,N
1458326375.9,286046996.6,N
1458326395.7,286046997.1,N
1458326415.6,286046997.1,N
1458326435.4,286046994.9,N
1458326455.2,286047000.5,N
1458326475.0,286047000.1,N
1458326475.9,286047000.1,N
1458326495.8,286046999.4,N
1458326515.6,286046997.1,N
1458326535.4,286046997.6,N
1458326555.3,286046995.5,N
1458326575.1,286046991.8,Y
1458326595.8,286046995.7,P
1458326615.7,286046995.5,N
1458326635.5,286046996.4,N
1458326655.3,286046997.4,N
1458326675.2,286046995.4,Y
1458326695.0,286047002.6,P
1458326695.9,286047002.6,N
1458326715.7,286046998.6,N
1458326735.6,286047000.9,N
1458326755.4,286046998.5,N
1458326775.2,286046996.7,N
1458326795.1,286046998.4,N
1458326796.0,286046998.4,N
1458326815.8,286046995.5,N
1458326835.6,286046997.9,N
1458326855.5,286046995.7,N
1458326875.3,286046995.6,N
1458326895.1,286046995.4,N
1458326915.9,286046994.3,N
1458326935.7,286046992.4,Y
1458326955.5,286046995.9,P
1458326975.4,286046993.4,P
1458326995.2,286046995.1,N
1458327015.0,286046993.4,Y
1458327015.9,286046993.4,P
1458327035.8,286047001.1,N
1458327055.6,286046998.7,N
1458327075.4,286046997.9,N
1458327095.3,286046997.7,N
1458327115.1,286047000.6,N
1458327116.0,286047000.6,N
1458327135.8,286046999.5,N
1458327155.7,286046999.5,N
1458327175.5,286046995.2,N
1458327195.3,286046994.4,N
1458327215.1,286046994.8,N
1458327235.9,286046990.9,Y
1458327255.7,286046994.5,P
1458327275.6,286046995.1,P
1458327295.4,286046999.0,N
1458327315.2,286046999.5,N
1458327335.0,286047001.2,N
1458327335.9,286047001.2,N
1458327355.8,286047000.3,N
1458327375.6,286046998.5,N
1458327395.4,286047002.3,N
1458327415.3,286047003.4,N
1458327435.1,286047004.6,N
1458327436.0,286047004.6,N
1458327455.8,286047002.9,N
1458327475.7,286047001.6,N
1458327495.5,286047004.6,N
1458327515.3,286047008.2,N
1458327535.2,286047009.3,N
1458327555.9,286047009.7,N
1458327575.7,286047011.4,N
1458327595.5,286047011.1,N
